[[{"header":{"parameterUnit":"m.s-1","parameterCategory":1,"la1":30.2991,"la2":30.254,"lo1":-89.0895,"lo2":-89.0444,"dy":0.0017,"dx":0.0017,"nx":28,"ny":28,"refTime":"2026-02-10T09:00:00:Z","depth":0,"parameterNumber":2,"parameterNumberName":"U-component_of_WINDS"},"data":[0,0,0,0,0,0,0,0,0,0,0,0,0,0,0,0,0,0,0,0,0,0,0,0,0,0,0,0,0,0,0,0,0,0,0,0,0,0,0,0,0,0,0,0,0,0,0,0,0,0,0,0,0,0,0,0,0,0,0.1382,0.1382,0,0.1421,0.1422,0.1422,0.1439,0.1439,0.1439,0.1439,0.148,0.1481,0.1482,0,0,0,0,0,0,0,0,0,0,0,0,0,0.1322,0.1323,0.1382,0.1382,0.1383,0.1421,0.1422,0.1422,0.1439,0.1439,0.1439,0.1439,0.148,0.1481,0.1482,0,0,0,0,0,0,0,0,0,0,0,0,0,0.1354,0.1324,0.1382,0.1396,0.1397,0.1421,0.1422,0.1423,0.1439,0.1439,0.1439,0.1439,0.1479,0.1481,0.1483,0.1496,0,0,0.1488,0.1489,0,0,0,0,0,0,0,0,0.1352,0.1356,0.1393,0.1395,0.1397,0.1425,0.1416,0.1447,0.1439,0.1423,0.1439,0.1439,0.1462,0.1465,0.1473,0.1498,0.1499,0.1488,0.1489,0.149,0.149,0,0,0,0,0,0,0,0.135,0.1354,0.1398,0.1394,0.1396,0.1401,0.1405,0.1422,0.1443,0.1425,0.1426,0.143,0.1463,0.1471,0.1474,0.15,0.1488,0.149,0.1491,0.1491,0.1539,0.1539,0,0,0,0,0,0,0.1345,0.1352,0.1396,0.1399,0.1373,0.1402,0.1407,0.1416,0.1443,0.1447,0.143,0.1431,0.1468,0.1472,0.1475,0.1493,0.149,0.1492,0.1493,0.1539,0.1539,0.1539,0,0,0,0,0,0,0.1344,0.1349,0.1395,0.1376,0.1382,0.1403,0.1413,0.1417,0.1425,0.1447,0.1451,0.1435,0.1468,0.1473,0.1491,0.1495,0.1492,0.1494,0.1538,0.1539,0.1539,0.1528,0,0,0,0,0,0,0.1342,0.1348,0.1353,0.1376,0.1383,0.1409,0.1414,0.1418,0.1428,0.1429,0.1452,0.1456,0.1468,0.1488,0.1492,0.1497,0.1495,0.1538,0.1539,0.1539,0.1528,0.1528,0.1528,0,0,0,0,0,0.134,0.1348,0.1353,0.1358,0.1389,0.1409,0.1413,0.1427,0.1428,0.1434,0.1448,0.1455,0.1494,0.149,0.1495,0.15,0.1538,0.1538,0.1539,0.1529,0.1528,0.1528,0,0,0,0,0,0,0.1325,0.1352,0.1357,0.1373,0.1389,0.1412,0.1419,0.1426,0.1442,0.1443,0.146,0.1465,0.1481,0.1493,0.1488,0.1515,0.1516,0.1518,0.1507,0.1507,0.1507,0.1504,0.1497,0,0,0,0,0,0.1324,0.1338,0.136,0.1372,0.138,0.1398,0.1407,0.1416,0.1433,0.144,0.1456,0.1472,0.1488,0.1498,0.1514,0.153,0.1536,0.1536,0.1536,0.1536,0.1537,0.1548,0.1549,0.1541,0.1541,0.1541,0,0,0.1322,0.1338,0.1345,0.137,0.1383,0.1397,0.1403,0.1418,0.1429,0.1442,0.146,0.1472,0.1492,0.1509,0.1518,0.1519,0.1541,0.1537,0.1536,0.1538,0.1548,0.1549,0.155,0.1541,0.1541,0.1541,0,0,0.1325,0.1338,0.135,0.1363,0.1383,0.1395,0.1398,0.142,0.1428,0.1447,0.1457,0.1471,0.1498,0.1511,0.1522,0.1531,0.1539,0.1535,0.1535,0.1545,0.1545,0.1546,0.155,0.1551,0.1537,0.1537,0.1536,0,0.1319,0.134,0.1355,0.1369,0.138,0.1393,0.1406,0.1418,0.1442,0.1449,0.1451,0.1485,0.1499,0.152,0.1523,0.153,0.1535,0.1533,0.1544,0.1545,0.1546,0.155,0.1551,0.1536,0.1536,0.1536,0.1536,0,0.1333,0.1348,0.1355,0.1378,0.139,0.1403,0.142,0.143,0.1439,0.1451,0.147,0.1488,0.1508,0.1513,0.1522,0.1536,0.1537,0.1541,0.1543,0.1546,0.155,0.1552,0.1535,0.1536,0.1536,0.1536,0,0,0.1328,0.1359,0.1361,0.1372,0.1396,0.1408,0.1422,0.1441,0.145,0.1466,0.1479,0.1502,0.1506,0.1518,0.1529,0.1537,0.1545,0.1541,0.1541,0.1541,0.1562,0.156,0.1561,0.155,0.155,0.155,0.1561,0,0.1334,0.136,0.1374,0.1394,0.1408,0.1421,0.1434,0.145,0.1462,0.1477,0.149,0.1506,0.151,0.1518,0.1527,0.1542,0.1549,0.1541,0.1563,0.1563,0.1558,0.1563,0.156,0.1569,0.1563,0.1563,0.1563,0,0.1345,0.1361,0.1383,0.1405,0.1412,0.1423,0.1442,0.1455,0.1474,0.1482,0.1496,0.1506,0.1523,0.1524,0.1547,0.1541,0.1551,0.156,0.156,0.1563,0.1564,0.1567,0.1572,0.1574,0.1566,0.1565,0.1565,0,0.1339,0.1367,0.1384,0.1392,0.1419,0.1426,0.1438,0.1456,0.1468,0.1485,0.1492,0.1511,0.1522,0.1536,0.1552,0.1551,0.1574,0.1576,0.1582,0.1581,0.1586,0.1586,0.1594,0.1592,0.1592,0.1592,0.1592,0,0.1345,0.1358,0.1382,0.1392,0.1407,0.1423,0.1438,0.1451,0.1467,0.1481,0.1493,0.1506,0.1525,0.154,0.1553,0.1571,0.1575,0.1583,0.1586,0.1582,0.1581,0.1589,0.1589,0.1592,0.1592,0.1592,0.1592,0,0.1342,0.1358,0.1377,0.1401,0.1407,0.1417,0.1438,0.1449,0.1462,0.1479,0.1484,0.1504,0.1523,0.154,0.1564,0.1573,0.1591,0.1595,0.1585,0.1587,0.1592,0.1592,0.1606,0.1609,0.1604,0.1604,0.1604,0,0.1345,0.1355,0.138,0.139,0.1401,0.1417,0.1428,0.1445,0.1456,0.1479,0.1488,0.1507,0.1524,0.1553,0.157,0.159,0.1594,0.1598,0.1597,0.1593,0.1595,0.1595,0.1596,0.1598,0.1598,0.1598,0.1598,0,0.1348,0.1356,0.1372,0.1391,0.1404,0.142,0.1436,0.1444,0.1464,0.1476,0.1495,0.1508,0.1534,0.1553,0.1575,0.1587,0.1596,0.1598,0.1601,0.1597,0.1591,0.1595,0.1585,0.1598,0.1598,0.1598,0.1598,0.1598,0.1349,0.1359,0.1378,0.1395,0.1409,0.1425,0.1436,0.1451,0.1467,0.1489,0.1498,0.1518,0.1538,0.1567,0.158,0.1596,0.1598,0.1601,0.1602,0.1603,0.1603,0.1588,0.16,0.16,0.16,0.16,0.16,0,0.1353,0.1366,0.1382,0.1405,0.1419,0.1426,0.1445,0.1456,0.1473,0.1491,0.1507,0.1529,0.1549,0.1568,0.1589,0.1598,0.1603,0.1603,0.1602,0.1605,0.1599,0.1595,0.1599,0.1599,0.1599,0.1599,0.1599,0.1599,0.1357,0.1375,0.1385,0.141,0.1424,0.1443,0.1453,0.1467,0.1482,0.1506,0.1522,0.1535,0.1553,0.1575,0.1594,0.1599,0.1606,0.1605,0.1612,0.1606,0.1606,0.1606,0.1602,0.1607,0.1607,0.1617,0.1617,0.1617]},{"header":{"parameterUnit":"m.s-1","parameterCategory":1,"la1":30.2991,"la2":30.254,"lo1":-89.0895,"lo2":-89.0444,"dy":0.0017,"dx":0.0017,"nx":28,"ny":28,"refTime":"2026-02-10T09:00:00:Z","depth":0,"parameterNumber":3,"parameterNumberName":"V-component_of_WINDS"},"data":[0,0,0,0,0,0,0,0,0,0,0,0,0,0,0,0,0,0,0,0,0,0,0,0,0,0,0,0,0,0,0,0,0,0,0,0,0,0,0,0,0,0,0,0,0,0,0,0,0,0,0,0,0,0,0,0,0,0,0.2558,0.2557,0,0.2507,0.2507,0.2506,0.2506,0.2507,0.2508,0.2508,0.2455,0.2453,0.2451,0,0,0,0,0,0,0,0,0,0,0,0,0,0.2654,0.2652,0.2558,0.2557,0.2557,0.2507,0.2506,0.2506,0.2506,0.2507,0.2508,0.2509,0.2455,0.2453,0.245,0,0,0,0,0,0,0,0,0,0,0,0,0,0.2609,0.2652,0.2558,0.2551,0.255,0.2507,0.2506,0.2506,0.2506,0.2507,0.2508,0.2509,0.2456,0.2453,0.245,0.2411,0,0,0.2441,0.2439,0,0,0,0,0,0,0,0,0.2611,0.2605,0.2553,0.2551,0.255,0.2514,0.2521,0.2474,0.2506,0.2523,0.2508,0.2509,0.2473,0.2469,0.2457,0.2408,0.2406,0.244,0.2438,0.2437,0.2436,0,0,0,0,0,0,0,0.2614,0.2607,0.2538,0.2552,0.255,0.255,0.2544,0.2512,0.2493,0.2521,0.2521,0.2515,0.2473,0.246,0.2456,0.2405,0.244,0.2438,0.2436,0.2435,0.2322,0.232,0,0,0,0,0,0,0.2619,0.261,0.2539,0.2536,0.2584,0.2547,0.2541,0.2525,0.2493,0.249,0.2514,0.2515,0.2465,0.246,0.2454,0.2406,0.2437,0.2434,0.2433,0.2323,0.2321,0.232,0,0,0,0,0,0,0.2621,0.2613,0.2541,0.2573,0.2564,0.2545,0.2526,0.2523,0.251,0.2488,0.2485,0.2505,0.2466,0.2458,0.2422,0.2404,0.2433,0.243,0.2324,0.2322,0.2321,0.2309,0,0,0,0,0,0,0.2624,0.2614,0.2599,0.2573,0.2562,0.251,0.2525,0.2521,0.2505,0.2506,0.2478,0.2475,0.2466,0.2426,0.2419,0.24,0.2428,0.2326,0.2323,0.2321,0.2311,0.2308,0.2304,0,0,0,0,0,0.2627,0.2597,0.2598,0.2589,0.2543,0.2509,0.2503,0.2494,0.2504,0.2488,0.2474,0.2476,0.2407,0.2423,0.2414,0.2394,0.2327,0.2324,0.2321,0.2313,0.2308,0.2304,0,0,0,0,0,0,0.2621,0.2594,0.2594,0.2555,0.2534,0.2509,0.249,0.2489,0.2465,0.2467,0.2456,0.245,0.2413,0.24,0.2418,0.2355,0.2368,0.2364,0.2365,0.236,0.2357,0.236,0.2425,0,0,0,0,0,0.2615,0.259,0.2567,0.2535,0.2525,0.2509,0.2494,0.2489,0.2467,0.2458,0.2441,0.2419,0.2393,0.2376,0.2351,0.231,0.2303,0.2292,0.2289,0.2286,0.2282,0.2259,0.2253,0.2312,0.2312,0.2312,0,0,0.2602,0.2584,0.2569,0.2533,0.2517,0.2491,0.2502,0.2474,0.2454,0.2454,0.2418,0.2405,0.238,0.2341,0.2323,0.2329,0.2265,0.2283,0.2281,0.2278,0.2256,0.225,0.2245,0.231,0.231,0.231,0,0,0.2566,0.255,0.2521,0.2505,0.248,0.247,0.2463,0.2438,0.2429,0.2394,0.2393,0.2369,0.2324,0.2307,0.2292,0.2249,0.2249,0.2241,0.2223,0.22,0.2196,0.2192,0.2176,0.2171,0.2237,0.2237,0.2237,0,0.2553,0.2514,0.2506,0.2478,0.2462,0.2461,0.2432,0.2416,0.2384,0.2373,0.238,0.2324,0.2307,0.2264,0.2254,0.2242,0.2233,0.2244,0.2197,0.2193,0.2189,0.2174,0.2168,0.2237,0.2237,0.2237,0.2237,0,0.2499,0.2472,0.2452,0.2422,0.2404,0.2375,0.2362,0.2345,0.2341,0.233,0.2294,0.2274,0.2244,0.2234,0.223,0.219,0.2194,0.22,0.2213,0.2183,0.2168,0.2163,0.2235,0.2236,0.2236,0.2236,0,0,0.2456,0.2423,0.2415,0.2402,0.2375,0.2353,0.2325,0.2296,0.2281,0.226,0.2235,0.2197,0.2202,0.2185,0.2179,0.216,0.2127,0.2168,0.2167,0.216,0.2081,0.2077,0.207,0.2127,0.2126,0.2125,0.2083,0,0.2417,0.2366,0.2358,0.2313,0.2288,0.2287,0.2262,0.2243,0.2232,0.2209,0.2197,0.217,0.2179,0.2168,0.2149,0.2135,0.2111,0.2138,0.2103,0.2102,0.2109,0.2063,0.2058,0.2018,0.2077,0.2076,0.2076,0,0.2363,0.2341,0.2293,0.227,0.2259,0.2237,0.221,0.2188,0.2166,0.216,0.2141,0.2138,0.2107,0.2123,0.208,0.2099,0.2085,0.2076,0.2074,0.2069,0.2086,0.2056,0.2006,0.2,0.2067,0.2067,0.2068,0,0.2336,0.2294,0.226,0.2248,0.222,0.2205,0.2192,0.2171,0.2155,0.2131,0.2121,0.2094,0.2079,0.2058,0.2048,0.206,0.2006,0.2021,0.1999,0.1999,0.1987,0.1988,0.1933,0.1979,0.1979,0.1979,0.1979,0,0.2292,0.2263,0.2247,0.2226,0.2194,0.2185,0.2153,0.2141,0.2122,0.2099,0.2097,0.2075,0.2062,0.2038,0.203,0.1996,0.1989,0.1983,0.1981,0.1982,0.1983,0.1972,0.1974,0.1978,0.1978,0.1978,0.1979,0,0.2255,0.2244,0.2207,0.2184,0.2177,0.2154,0.2134,0.2114,0.2104,0.2074,0.2066,0.205,0.2021,0.2009,0.1974,0.1968,0.1929,0.1929,0.1936,0.1936,0.1915,0.1916,0.185,0.184,0.1894,0.1893,0.1893,0,0.2227,0.2205,0.218,0.2164,0.2151,0.2126,0.211,0.2101,0.2083,0.2057,0.2039,0.2011,0.1988,0.1942,0.1927,0.19,0.1899,0.1877,0.1895,0.1897,0.1898,0.1899,0.1896,0.1874,0.1873,0.1873,0.1873,0,0.2179,0.2175,0.2151,0.2126,0.2106,0.2085,0.2065,0.2052,0.204,0.2021,0.1992,0.1974,0.1938,0.191,0.1882,0.1869,0.1868,0.1868,0.1861,0.1862,0.1867,0.1863,0.1927,0.1869,0.1869,0.1869,0.187,0.187,0.2145,0.2126,0.2105,0.2079,0.2063,0.2044,0.2024,0.2011,0.1987,0.1958,0.1954,0.1923,0.1901,0.1864,0.185,0.1825,0.183,0.1821,0.1818,0.1816,0.1814,0.1872,0.182,0.182,0.182,0.182,0.182,0,0.2096,0.2083,0.2059,0.2031,0.2011,0.2013,0.1991,0.1973,0.1946,0.1927,0.1904,0.1871,0.1843,0.1826,0.1798,0.1782,0.1781,0.1775,0.1775,0.1772,0.1812,0.182,0.1776,0.1776,0.1776,0.1776,0.1776,0.1776,0.2068,0.2035,0.2028,0.1986,0.1973,0.1943,0.193,0.1913,0.1897,0.186,0.1838,0.1827,0.1808,0.1779,0.1754,0.175,0.1739,0.1732,0.1728,0.1765,0.1769,0.1774,0.1781,0.1731,0.173,0.1691,0.169,0.169]}]]